This is the latest recevied weather packets stored in our database for station/object WW5AH-9. If no packets are shown the sender has not sent any weather packets the latest 1 day(s).
| Time | Temp. | Humidity | Pressure | Rain* | Wind** | Luminosity | Snow |
|---|---|---|---|---|---|---|---|
| 1778098032 | 13.89° C | 89% | 1012.5 hPa | 0 mm | - | 104 W/m² | - |
| 1778097121 | 13.89° C | 89% | 1012.2 hPa | 0 mm | - | 113 W/m² | - |
| 1778095606 | 13.89° C | 90% | 1012.5 hPa | 0 mm | - | 259 W/m² | - |
| 1778094695 | 14.44° C | 90% | 1011.8 hPa | 0 mm | - | 192 W/m² | - |
| 1778093180 | 13.89° C | 91% | 1011.9 hPa | 0 mm | - | 205 W/m² | - |
| 1778092574 | 13.89° C | 91% | 1012.7 hPa | 0 mm | - | 380 W/m² | - |
| 1778091968 | 13.33° C | 92% | 1012.5 hPa | 0 mm | - | 282 W/m² | - |
| 1778091665 | 13.33° C | 92% | 1013.1 hPa | 0 mm | - | 251 W/m² | - |
| 1778091059 | 13.33° C | 93% | 1014 hPa | 0 mm | - | 255 W/m² | - |
| 1778089845 | 13.33° C | 93% | 1014.8 hPa | 0 mm | - | 79 W/m² | - |
| 1778089544 | 13.33° C | 93% | 1015.2 hPa | 0 mm | - | 44 W/m² | - |
| 1778086516 | 13.89° C | 93% | 1014.5 hPa | 0 mm | - | 128 W/m² | - |
| 1778084996 | 13.89° C | 92% | 1013.5 hPa | 0 mm | - | 112 W/m² | - |
| 1778081765 | 15° C | 91% | 1013.1 hPa | 0 mm | - | 57 W/m² | - |
| 1778080857 | 15° C | 91% | 1012.9 hPa | 0 mm | - | 53 W/m² | - |
| 1778080555 | 15° C | 91% | 1012.7 hPa | 0 mm | - | 60 W/m² | - |
| 1778080252 | 15° C | 91% | 1012.7 hPa | 0 mm | - | 78 W/m² | - |
| 1778079342 | 15° C | 90% | 1012.5 hPa | 0 mm | - | 89 W/m² | - |
| 1778078736 | 14.44° C | 90% | 1012.3 hPa | 0 mm | - | 76 W/m² | - |
| 1778076922 | 14.44° C | 88% | 1012.3 hPa | 0 mm | - | 47 W/m² | - |
| 1778075711 | 14.44° C | 87% | 1011.9 hPa | 0 mm | - | 44 W/m² | - |
| 1778075104 | 15° C | 86% | 1011.9 hPa | 0 mm | - | 29 W/m² | - |
| 1778074194 | 15° C | 85% | 1011.9 hPa | 0 mm | - | 32 W/m² | - |
| 1778073285 | 15.56° C | 85% | 1011.4 hPa | 0 mm | - | 24 W/m² | - |
| 1778072982 | 15.56° C | 85% | 1011.4 hPa | 0 mm | - | 25 W/m² | - |
* Rain latest hour (hover to see other rain measurements)
** Current wind speed in m/s (hover to see current wind gust speed)